This demonstration page uses our WeatherBlox Daily Observations layout. Learn more.

Left ArrowRight Arrow

Hourly Observations for March 8, 2017

Temp ( °F °C ) Dew Point ( °F °C ) Humidity (%) Winds ( mph kmh ) Pressure ( in mb ) Visibility ( mi km ) Precip ( " mm )
12:52 am 00:52 Clear 39 3.9 17 -8.3 41 41 SW 10 17 30.25 1025 10 16 0.00 0.00
1:52 am 01:52 Clear 42 5.6 14 -10 32 32 WSW 6 9 30.27 1025 10 16 0.00 0.00
2:52 am 02:52 Clear 40 4.4 14 -10 35 35 WNW 3 6 30.27 1025 10 16 0.00 0.00
3:52 am 03:52 Clear 36 2.2 18 -7.8 48 48 WSW 10 17 30.27 1025 10 16 0.00 0.00
4:52 am 04:52 Clear 38 3.3 18 -7.8 44 44 SW 8 13 30.27 1025 10 16 0.00 0.00
5:52 am 05:52 Clear 44 6.7 14 -10 30 30 WNW 5 7 30.29 1026 10 16 0.00 0.00
6:52 am 06:52 Sunny 38 3.3 19 -7.2 46 46 SSW 9 15 30.30 1026 10 16 0.00 0.00
7:52 am 07:52 Sunny 44 6.7 21 -6.1 40 40 SSW 8 13 30.30 1026 10 16 0.00 0.00
8:52 am 08:52 Sunny 51 10.6 22 -5.6 32 32 SSW 10 17 30.31 1027 10 16 0.00 0.00
9:52 am 09:52 Sunny 56 13.3 21 -6.1 26 26 SSW 9 15 30.31 1026 10 16 0.00 0.00
10:52 am 10:52 Sunny 61 16.1 20 -6.7 20 20 SSW 13 20 30.29 1026 10 16 0.00 0.00
11:52 am 11:52 Sunny 64 17.8 17 -8.3 16 16 SW 15 24 30.27 1025 10 16 0.00 0.00
12:52 pm 12:52 Sunny 66 18.9 16 -8.9 14 14 S 14 22 30.23 1024 10 16 0.00 0.00
1:52 pm 13:52 Sunny 68 20 18 -7.8 15 15 SSW 14 22 30.19 1022 10 16 0.00 0.00
2:52 pm 14:52 Sunny 68 20 17 -8.3 14 14 S 16 26 30.16 1021 10 16 0.00 0.00
3:52 pm 15:52 Sunny 68 20 15 -9.4 13 13 SSW 17 28 30.14 1021 10 16 0.00 0.00
4:52 pm 16:52 Sunny 67 19.4 14 -10 13 13 SSW 20 31 30.13 1020 10 16 0.00 0.00
5:52 pm 17:52 Sunny 60 15.6 20 -6.7 21 21 SW 9 15 30.14 1021 10 16 0.00 0.00
6:52 pm 18:52 Clear 53 11.7 21 -6.1 28 28 SW 8 13 30.16 1021 10 16 0.00 0.00
7:52 pm 19:52 Clear 47 8.3 26 -3.3 44 44 SSE 8 13 30.16 1021 10 16 0.00 0.00
8:52 pm 20:52 Clear 54 12.2 22 -5.6 29 29 SSE 10 17 30.15 1021 10 16 0.00 0.00
9:52 pm 21:52 Clear 53 11.7 22 -5.6 30 30 S 13 20 30.15 1021 10 16 0.00 0.00
10:52 pm 22:52 Clear 52 11.1 25 -3.9 35 35 S 12 19 30.14 1021 10 16 0.00 0.00
11:52 pm 23:52 Clear 52 11.1 26 -3.3 37 37 SSE 13 20 30.13 1020 10 16 0.00 0.00

Powered by AerisWeather